Location: Mountain View
(37.3861°N, 122.0839°W)
Time: 20:03:07
(UTC-08:00)

OTV 5 (USA 277) - Visible Passes

Search period start: 23 February 2019 00:00
Search period end: 05 March 2019 00:00
Orbit: 342 x 346 km, 54.5° (Epoch: 17 February)

Date Brightness Start Highest point End Pass type
(mag) Time Alt. Az. Time Alt. Az. Time Alt. Az.
23 Feb ? 19:45:01 10° W 19:47:15 26° NW 19:47:15 26° NW visible
24 Feb ? 18:33:24 10° SW 18:36:15 73° SE 18:39:07 10° NE visible
24 Feb ? 20:10:37 10° NW 20:10:44 10° NW 20:10:44 10° NW visible
25 Feb ? 18:57:24 10° W 18:59:57 28° NW 19:02:31 10° NNE visible
26 Feb ? 19:22:53 10° NW 19:23:54 11° NNW 19:24:56 10° N visible
28 Feb ? 18:35:11 10° NW 18:36:19 12° NNW 18:37:28 10° N visible
